THOR ABLESTAR DEB, 1425

Orbit data source: Space-Track

THOR ABLESTAR DEB, 1425 is space debris in LEO originally from a launch on Thu, 24 Jun 1965 UTC launched from the Air Force Western Test Range (AFWTR). Debris objects in space refer to the collection of defunct objects orbiting the Earth. Examples of debris include non-operational satellites, rocket bodies, and fragments generated from explosions, collisions, or faulty payload assembly.

Loading next visibility...
Identifier
1425, 1965-048C
Orbit
LEO
Country
Flag of USUS
Related business
Manufacturer
APL
Mission
Spacecraft
Bus & Motor
Unknown
Mass
Unknown
Launch date (UTC)
1965-06-24 (61 years ago)
Launch vehicle
Unknown
Launch site
Air Force Western Test Range (AFWTR)
Object type
Payload
Rocket body
Debris
Shape & HBR
Unknown shape, 0.4 m
Radar Cross Section
Medium (>0.1 m² and <1 m²)

Expand to show TLE details & history
Last TLE update: 14 hours ago

TLE from 14 hours ago
0 THOR ABLESTAR DEB
1 01425U 65048C   26144.63480648  .00000046  00000-0  59066-4 0  9991
2 01425  89.8761 285.1965 0071896 293.8277  82.5387 13.48946621997257
Epoch: 2026-05-24T15:14Z
TLE epoch observation values (Epoch: 2026-05-24T15:14:07.279Z)
Latitude
17.17001°
Longitude
174.47013°
Altitude
1,071.907 km
Speed
7.321 km/s
True Right ascension
19h 00m 56s
True Declination
17° 04' 38"
Sunlit
Object was in full shadow at epoch
Visualization orbit readout
Latitude
Unknown
Longitude
Unknown
Altitude
Unknown
Speed
Unknown
Apparent Right ascension
Unknown
Apparent Declination
Unknown
Sunlit
N/A
Visualization observer readout
Local Sidereal Time
14:33:58
Azimuth
Unknown
Elevation
Unknown
Doppler factor
Unknown
Orbital elements
Apogee altitude
1,126.76 km
Perigee altitude
1,019.616 km
Semi-major axis
7,451.325 km
Eccentricity
0.00719
Inclination
89.8761°
RAAN
285.1965°
Arg. of periapsis
293.8277°
True anomaly
83.35652°
Mean anomaly
82.5387°
Eccentric anomaly
82.94752°
Mean motion
3.37437 °/min
Orbital period
106.69 mins
BSTAR
0.000059066
Loading maneuver chart data...
Computing Atmospheric mass density...

Documentation

Showing up to 5 results
|